Location: Croydon
(51.3762°N, 0.0982°W)
Time: 21:08:59
(UTC+00:00)

Altair - Pass Details

Date: 17 November 2019
Orbit: 1502 x 1682 km, 47.2° (Epoch: 12 December)

Event Time Altitude Azimuth Distance (km) Brightness Sun altitude
Rises 04:49:24 0° 243° (WSW) 4,632 - -23.3°
Reaches altitude 10° 04:52:26 10° 240° (WSW) 3,650 - -22.8°
Exits shadow 04:55:33 24° 234° (SW) 2,706 8.3 -22.3°
Maximum altitude 05:01:23 61° 163° (SSE) 1,682 7.7 -21.4°
Drops below altitude 10° 05:10:30 10° 86° (E) 3,717 10.7 -20.0°
Sets 05:13:37 0° 84° (E) 4,722 11.5 -19.5°
